User: anonymous   Login
Location: Krasnoyarskiy
(51.1133°N, 71.6497°E)
Time: 16:54:25
(UTC+00:00)
Language:

Cosmos 1346 Rocket - Orbit

View from above orbital plane
View from above orbital plane
View from above satellite
View from above satellite

Ground track
Ground track

The orbit data is extracted from the following two-line orbital elements,

1 13121U 82027B   24105.86939836  .00006569  00000-0  33870-3 0  9991
2 13121  81.1912 130.2912 0012401  98.1995 262.0640 15.16154841292985
Epoch (UTC): 14 April 2024 20:51:56
Eccentricity: 0.0012401
inclination: 81.1912°
perigee height: 509 km
apogee height: 526 km
right ascension of ascending node: 130.2912°
argument of perigee: 98.1995°
revolutions per day: 15.16154841
mean anomaly at epoch: 262.0640°
orbit number at epoch: 29298

The dashed part of the orbit path shows where the satellite is in the earth's shadow,  

DLR